Regional Weather Roundup
Issued by NWS

Home | Current Version | Previous Version | Text Only | Print | Product List | Glossary On
Versions: 1 2 3 4 5 6 7 8 9 10 11 12 13 14 15 16 17 18 19 20 21 22 23 24 25 26 27 28 29 30 31 32 33 34 35 36 37 38 39 40 41 42 43 44 45 46 47 48 49 50
000
ASUS43 KFSD 190202
RWRSD

WEATHER ROUNDUP FOR SOUTH DAKOTA
NATIONAL WEATHER SERVICE SIOUX FALLS SD
900 PM CDT MON SEP 18 2017

NOTE: "FAIR" INDICATES FEW OR NO CLOUDS BELOW 12,000 FEET WITH NO
SIGNIFICANT WEATHER AND/OR OBSTRUCTIONS TO VISIBILITY.


SDZ001>005-009-010-012>017-190300-
NORTHWEST AND NORTH CENTRAL SOUTH DAKOTA

CITY           SKY/WX    TMP DP  RH WIND       PRES   REMARKS
BUFFALO          N/A     65  40  39 E14       29.64F
MOBRIDGE       CLEAR     65  46  50 E14       29.74F
$$

SDZ012>016-024>037-041>051-057-063-072>074-190300-
SOUTHWEST AND SOUTH CENTRAL SOUTH DAKOTA

CITY           SKY/WX    TMP DP  RH WIND       PRES   REMARKS
RAPID CTY ARPT CLEAR     64  39  39 E10       29.73S
PIERRE         CLEAR     66  54  65 SE9       29.74S
CUSTER         PTCLDY    64  30  27 SE7       29.86S
ELLSWORTH AFB  CLEAR     69  38  32 E9        29.72S
PHILIP         MOCLDY    66  53  63 E12       29.73S
PINE RIDGE     PTCLDY    70  39  32 SE9       29.77S
SPEARFISH      FAIR      63  43  48 S9        29.73F
WINNER         FAIR      70  60  70 S13       29.79R
$$

SDZ004>011-016>023-039-040-190300-
NORTHEAST SOUTH DAKOTA

CITY           SKY/WX    TMP DP  RH WIND       PRES   REMARKS
ABERDEEN       CLEAR     60  54  80 SE5       29.79S
WATERTOWN      CLEAR     62  60  93 SE8       29.84S
BROOKINGS      CLEAR     62  59  90 SE10      29.87R
SISSETON         N/A     62  60  93 SE8       29.83R
$$

SDZ017-020-022-023-036>040-048>070-190300-
SOUTHEAST SOUTH DAKOTA

CITY           SKY/WX    TMP DP  RH WIND       PRES   REMARKS
SIOUX FALLS    MOCLDY    69  65  86 S8        29.87R
HURON          CLEAR     68  61  78 SE12      29.80R
CHAMBERLAIN    CLEAR     67  64  89 SE8       29.79R
MITCHELL       CLEAR     68  62  81 SE8       29.82S
YANKTON        PTCLDY    67  64  90 SE8       29.86R
$$

ABBREVIATIONS USED IN REMARKS
   TC - TEMPERATURE IN CELSIUS
  WCI - WIND CHILL INDEX
   HX - HEAT INDEX
  VSB - VISIBILITY




USA.gov is the U.S. government's official web portal to all federal, state and local government web resources and services.